TimeMST,TemperatureF,Dew PointF,Humidity,Sea Level PressureIn,VisibilityMPH,Wind Direction,Wind SpeedMPH,Gust SpeedMPH,PrecipitationIn,Events,Conditions,WindDirDegrees,DateUTC
12:56 AM,21.9,8.1,55,29.96,-9999.0,NNW,10.4,-,N/A,,Unknown,330,2012-12-11 07:56:00
1:56 AM,17.1,6.1,62,29.98,-9999.0,NW,9.2,-,N/A,,Unknown,320,2012-12-11 08:56:00
2:56 AM,17.1,6.1,62,30.00,-9999.0,NNW,9.2,-,N/A,,Unknown,330,2012-12-11 09:56:00
3:56 AM,15.1,6.1,68,30.03,-9999.0,NW,10.4,-,N/A,,Unknown,320,2012-12-11 10:56:00
4:56 AM,14.0,6.1,71,30.08,-9999.0,NNW,11.5,-,N/A,,Unknown,330,2012-12-11 11:56:00
5:56 AM,15.1,8.1,74,30.11,-9999.0,NNW,8.1,-,N/A,,Unknown,330,2012-12-11 12:56:00
6:56 AM,15.1,9.0,77,30.14,-9999.0,NW,10.4,-,N/A,,Unknown,320,2012-12-11 13:56:00
7:56 AM,19.9,12.9,74,30.12,-9999.0,NW,9.2,-,N/A,,Unknown,310,2012-12-11 14:56:00
8:56 AM,30.9,18.0,59,30.10,-9999.0,NW,8.1,-,N/A,,Unknown,310,2012-12-11 15:56:00
9:56 AM,35.1,16.0,46,30.09,-9999.0,WNW,4.6,-,N/A,,Unknown,290,2012-12-11 16:56:00
10:56 AM,36.0,15.1,43,30.09,-9999.0,Variable,3.5,-,N/A,,Unknown,0,2012-12-11 17:56:00
11:56 AM,37.9,12.0,35,30.05,-9999.0,West,4.6,-,N/A,,Unknown,270,2012-12-11 18:56:00
12:56 PM,39.9,10.9,31,30.01,-9999.0,SW,8.1,-,N/A,,Unknown,230,2012-12-11 19:56:00
1:56 PM,41.0,10.0,28,30.00,-9999.0,SW,9.2,-,N/A,,Unknown,230,2012-12-11 20:56:00
2:56 PM,39.9,9.0,28,29.99,-9999.0,SSW,9.2,-,N/A,,Unknown,210,2012-12-11 21:56:00
3:56 PM,37.9,9.0,30,30.00,-9999.0,SSW,11.5,-,N/A,,Unknown,210,2012-12-11 22:56:00
4:56 PM,30.9,8.1,38,30.03,-9999.0,SSW,11.5,-,N/A,,Unknown,200,2012-12-11 23:56:00
5:56 PM,28.0,8.1,43,30.03,-9999.0,SSW,11.5,-,N/A,,Unknown,200,2012-12-12 00:56:00
6:56 PM,26.1,7.0,44,30.04,-9999.0,SW,13.8,-,N/A,,Unknown,220,2012-12-12 01:56:00
7:56 PM,21.9,6.1,51,30.02,-9999.0,SW,12.7,-,N/A,,Unknown,220,2012-12-12 02:56:00
8:56 PM,25.0,5.0,43,29.98,-9999.0,SW,12.7,-,N/A,,Unknown,220,2012-12-12 03:56:00
9:56 PM,25.0,6.1,45,29.96,-9999.0,SW,11.5,-,N/A,,Unknown,230,2012-12-12 04:56:00
10:56 PM,28.0,7.0,41,29.94,-9999.0,WSW,12.7,-,N/A,,Unknown,240,2012-12-12 05:56:00
11:56 PM,27.0,7.0,43,29.91,-9999.0,SW,10.4,-,N/A,,Unknown,230,2012-12-12 06:56:00